Time,TemperatureF,DewpointF,PressureIn,WindDirection,WindDirectionDegrees,WindSpeedMPH,WindSpeedGustMPH,Humidity,HourlyPrecipIn,Conditions,Clouds,dailyrainin,SoftwareType,DateUTC
2013-07-19 00:01:00,72.6,72.6,30.10,WNW,283,0.0,0.0,100,0.00,,---,0.00,VWS V14.00,2013-07-19 04:01:00,
2013-07-19 00:02:00,72.6,72.6,30.10,WNW,283,0.0,0.0,100,0.00,,---,0.00,VWS V14.00,2013-07-19 04:02:00,
2013-07-19 00:03:00,72.6,72.6,30.10,WNW,283,0.0,0.0,100,0.00,,---,0.00,VWS V14.00,2013-07-19 04:03:00,
2013-07-19 00:08:00,72.6,72.6,30.10,West,275,0.0,0.0,100,0.00,,---,0.00,VWS V14.00,2013-07-19 04:08:00,
2013-07-19 00:13:00,72.6,72.6,30.10,WSW,254,0.0,0.0,100,0.00,,---,0.00,VWS V14.00,2013-07-19 04:13:00,
2013-07-19 00:18:00,72.6,72.6,30.10,WSW,246,0.0,0.0,100,0.00,,---,0.00,VWS V14.00,2013-07-19 04:18:00,
2013-07-19 00:23:00,72.6,72.6,30.10,WSW,246,0.0,0.0,100,0.00,,---,0.00,VWS V14.00,2013-07-19 04:23:00,
2013-07-19 00:28:00,72.6,72.6,30.10,WSW,246,0.0,0.0,100,0.00,,---,0.00,VWS V14.00,2013-07-19 04:28:00,
2013-07-19 00:34:00,72.6,72.6,30.10,WSW,246,0.0,0.0,100,0.00,,---,0.04,VWS V14.00,2013-07-19 04:34:00,
2013-07-19 00:39:00,72.6,72.6,30.10,WSW,246,0.0,0.0,100,0.00,,---,0.04,VWS V14.00,2013-07-19 04:39:00,
2013-07-19 00:44:00,72.6,72.6,30.10,NNE,21,0.0,0.0,100,0.00,,---,0.04,VWS V14.00,2013-07-19 04:44:00,
2013-07-19 00:49:00,72.4,72.4,30.10,North,10,0.0,0.0,100,0.00,,---,0.04,VWS V14.00,2013-07-19 04:49:00,
2013-07-19 00:54:00,72.2,72.2,30.10,North,11,0.0,0.0,100,0.00,,---,0.04,VWS V14.00,2013-07-19 04:54:00,
2013-07-19 00:59:00,72.2,72.2,30.10,North,6,0.0,0.0,100,0.00,,---,0.04,VWS V14.00,2013-07-19 04:59:00,
2013-07-19 01:04:00,72.0,72.0,30.10,West,267,0.0,0.0,100,0.00,,---,0.00,VWS V14.00,2013-07-19 05:04:00,
2013-07-19 01:09:00,71.9,71.9,30.10,West,267,0.0,0.0,100,0.00,,---,0.00,VWS V14.00,2013-07-19 05:09:00,
2013-07-19 01:14:00,71.9,71.9,30.07,West,267,0.0,0.0,100,0.00,,---,0.00,VWS V14.00,2013-07-19 05:14:00,
2013-07-19 01:19:00,71.7,71.7,30.07,West,267,0.0,0.0,100,0.00,,---,0.00,VWS V14.00,2013-07-19 05:19:00,
2013-07-19 01:24:00,71.5,71.5,30.07,West,267,0.0,0.0,100,0.00,,---,0.00,VWS V14.00,2013-07-19 05:24:00,
2013-07-19 01:29:00,71.5,71.5,30.10,West,267,0.0,0.0,100,0.00,,---,0.00,VWS V14.00,2013-07-19 05:29:00,
2013-07-19 01:35:00,71.3,71.3,30.10,West,267,0.0,0.0,100,0.00,,---,0.00,VWS V14.00,2013-07-19 05:35:00,
2013-07-19 01:40:00,71.3,71.3,30.10,West,267,0.0,0.0,100,0.00,,---,0.00,VWS V14.00,2013-07-19 05:40:00,
2013-07-19 01:45:00,71.3,71.3,30.10,West,267,0.0,0.0,100,0.00,,---,0.00,VWS V14.00,2013-07-19 05:45:00,
2013-07-19 01:50:00,71.3,71.3,30.10,West,267,0.0,0.0,100,0.00,,---,0.00,VWS V14.00,2013-07-19 05:50:00,
2013-07-19 01:55:00,71.3,71.3,30.10,SW,223,0.0,0.0,100,0.00,,---,0.00,VWS V14.00,2013-07-19 05:55:00,
2013-07-19 02:00:00,71.3,71.3,30.10,SW,223,0.0,0.0,100,0.00,,---,0.00,VWS V14.00,2013-07-19 06:00:00,
2013-07-19 02:05:00,71.5,71.5,30.10,SW,223,0.0,0.0,100,0.00,,---,0.00,VWS V14.00,2013-07-19 06:05:00,
2013-07-19 02:10:00,71.5,71.5,30.10,SW,223,0.0,0.0,100,0.00,,---,0.00,VWS V14.00,2013-07-19 06:10:00,
2013-07-19 02:16:00,71.5,71.5,30.10,SW,223,0.0,0.0,100,0.00,,---,0.00,VWS V14.00,2013-07-19 06:16:00,
2013-07-19 02:21:00,71.3,71.3,30.10,SW,223,0.0,0.0,100,0.00,,---,0.00,VWS V14.00,2013-07-19 06:21:00,
2013-07-19 02:26:00,71.3,71.3,30.07,SW,223,0.0,0.0,100,0.00,,---,0.00,VWS V14.00,2013-07-19 06:26:00,
2013-07-19 02:31:00,71.1,71.1,30.07,SW,223,0.0,0.0,100,0.00,,---,0.00,VWS V14.00,2013-07-19 06:31:00,
2013-07-19 02:37:00,71.1,71.1,30.07,SW,227,0.0,0.0,100,0.00,,---,0.00,VWS V14.00,2013-07-19 06:37:00,
2013-07-19 02:42:00,71.1,71.1,30.07,SW,227,0.0,0.0,100,0.00,,---,0.00,VWS V14.00,2013-07-19 06:42:00,
2013-07-19 02:47:00,71.0,71.0,30.07,North,9,0.0,0.0,100,0.00,,---,0.00,VWS V14.00,2013-07-19 06:47:00,
2013-07-19 02:52:00,71.0,71.0,30.07,North,9,0.0,0.0,100,0.00,,---,0.00,VWS V14.00,2013-07-19 06:52:00,
2013-07-19 02:57:00,70.8,70.8,30.07,North,4,0.0,0.0,100,0.00,,---,0.00,VWS V14.00,2013-07-19 06:57:00,
2013-07-19 03:02:00,70.8,70.8,30.07,North,4,0.0,0.0,100,0.00,,---,0.00,VWS V14.00,2013-07-19 07:02:00,
2013-07-19 03:07:00,70.6,70.6,30.07,North,4,0.0,0.0,100,0.00,,---,0.00,VWS V14.00,2013-07-19 07:07:00,
2013-07-19 03:13:00,70.4,70.4,30.07,NNE,18,0.0,0.0,100,0.00,,---,0.00,VWS V14.00,2013-07-19 07:13:00,
2013-07-19 03:18:00,70.4,70.4,30.07,NNE,18,0.0,0.0,100,0.00,,---,0.00,VWS V14.00,2013-07-19 07:18:00,
2013-07-19 03:23:00,70.2,70.2,30.07,NNE,18,0.0,0.0,100,0.00,,---,0.00,VWS V14.00,2013-07-19 07:23:00,
2013-07-19 03:28:00,70.1,70.1,30.07,NNE,18,0.0,0.0,100,0.00,,---,0.00,VWS V14.00,2013-07-19 07:28:00,
2013-07-19 03:33:00,70.1,70.1,30.07,NNE,18,0.0,0.0,100,0.00,,---,0.00,VWS V14.00,2013-07-19 07:33:00,
2013-07-19 03:38:00,70.1,70.1,30.07,NNE,18,0.0,0.0,100,0.00,,---,0.00,VWS V14.00,2013-07-19 07:38:00,
2013-07-19 03:44:00,69.9,69.9,30.07,NNE,18,0.0,0.0,100,0.00,,---,0.00,VWS V14.00,2013-07-19 07:44:00,
2013-07-19 03:49:00,69.9,69.9,30.07,NNE,18,0.0,0.0,100,0.00,,---,0.00,VWS V14.00,2013-07-19 07:49:00,
2013-07-19 03:54:00,69.9,69.9,30.07,NNE,18,0.0,0.0,100,0.00,,---,0.00,VWS V14.00,2013-07-19 07:54:00,
2013-07-19 03:59:00,69.9,69.9,30.07,NNE,18,0.0,0.0,100,0.00,,---,0.00,VWS V14.00,2013-07-19 07:59:00,
2013-07-19 04:04:00,69.9,69.9,30.07,NNE,18,0.0,0.0,100,0.00,,---,0.00,VWS V14.00,2013-07-19 08:04:00,
2013-07-19 04:09:00,69.7,69.7,30.07,NNE,18,0.0,0.0,100,0.00,,---,0.00,VWS V14.00,2013-07-19 08:09:00,
2013-07-19 04:14:00,69.9,69.9,30.07,NNE,18,0.0,0.0,100,0.00,,---,0.00,VWS V14.00,2013-07-19 08:14:00,
2013-07-19 04:19:00,69.9,69.9,30.07,NNE,18,0.0,0.0,100,0.00,,---,0.00,VWS V14.00,2013-07-19 08:19:00,
2013-07-19 04:24:00,69.9,69.9,30.07,NNE,18,0.0,0.0,100,0.00,,---,0.00,VWS V14.00,2013-07-19 08:24:00,
2013-07-19 04:29:00,69.7,69.7,30.07,NNE,18,0.0,0.0,100,0.00,,---,0.00,VWS V14.00,2013-07-19 08:29:00,
2013-07-19 04:34:00,69.7,69.7,30.07,NNE,18,0.0,0.0,100,0.00,,---,0.00,VWS V14.00,2013-07-19 08:34:00,
2013-07-19 04:40:00,69.7,69.7,30.07,SSW,197,0.0,0.0,100,0.00,,---,0.00,VWS V14.00,2013-07-19 08:40:00,
2013-07-19 04:45:00,69.7,69.7,30.07,South,191,0.0,0.0,100,0.00,,---,0.00,VWS V14.00,2013-07-19 08:45:00,
2013-07-19 04:50:00,69.7,69.7,30.07,South,186,0.0,0.0,100,0.00,,---,0.00,VWS V14.00,2013-07-19 08:50:00,
2013-07-19 04:55:00,69.9,69.9,30.07,South,186,0.0,0.0,100,0.00,,---,0.00,VWS V14.00,2013-07-19 08:55:00,
2013-07-19 05:00:00,69.9,69.9,30.07,SSW,194,0.0,0.0,100,0.00,,---,0.00,VWS V14.00,2013-07-19 09:00:00,
2013-07-19 05:05:00,69.7,69.7,30.07,SSW,194,0.0,0.0,100,0.00,,---,0.00,VWS V14.00,2013-07-19 09:05:00,
2013-07-19 05:10:00,69.7,69.7,30.07,SSW,194,0.0,0.0,100,0.00,,---,0.00,VWS V14.00,2013-07-19 09:10:00,
2013-07-19 05:15:00,69.7,69.7,30.07,SSW,195,0.0,0.0,100,0.00,,---,0.00,VWS V14.00,2013-07-19 09:15:00,
2013-07-19 05:20:00,69.9,69.9,30.07,SSW,193,0.0,0.0,100,0.00,,---,0.00,VWS V14.00,2013-07-19 09:20:00,
2013-07-19 05:25:00,69.9,69.9,30.07,SSW,193,0.0,0.0,100,0.00,,---,0.00,VWS V14.00,2013-07-19 09:25:00,
2013-07-19 05:31:00,69.9,69.9,30.07,SSW,193,0.0,0.0,100,0.00,,---,0.00,VWS V14.00,2013-07-19 09:31:00,
2013-07-19 05:36:00,69.9,69.9,30.07,SSW,193,0.0,0.0,100,0.00,,---,0.00,VWS V14.00,2013-07-19 09:36:00,
2013-07-19 05:41:00,69.7,69.7,30.07,South,186,0.0,0.0,100,0.00,,---,0.00,VWS V14.00,2013-07-19 09:41:00,
2013-07-19 05:46:00,69.5,69.5,30.07,South,182,0.0,0.0,100,0.00,,---,0.00,VWS V14.00,2013-07-19 09:46:00,
2013-07-19 05:51:00,69.2,69.2,30.07,South,182,0.0,0.0,100,0.00,,---,0.00,VWS V14.00,2013-07-19 09:51:00,
2013-07-19 05:56:00,69.2,69.2,30.07,South,182,0.0,0.0,100,0.00,,---,0.00,VWS V14.00,2013-07-19 09:56:00,
2013-07-19 06:01:00,69.0,69.0,30.07,South,182,0.0,0.0,100,0.00,,---,0.00,VWS V14.00,2013-07-19 10:01:00,
2013-07-19 06:06:00,69.0,69.0,30.07,South,182,0.0,0.0,100,0.00,,---,0.00,VWS V14.00,2013-07-19 10:06:00,
2013-07-19 06:11:00,69.0,69.0,30.07,South,182,0.0,0.0,100,0.00,,---,0.00,VWS V14.00,2013-07-19 10:11:00,
2013-07-19 06:16:00,68.8,68.8,30.07,South,182,0.0,0.0,100,0.00,,---,0.00,VWS V14.00,2013-07-19 10:16:00,
2013-07-19 06:21:00,68.8,68.8,30.07,South,182,0.0,0.0,100,0.00,,---,0.00,VWS V14.00,2013-07-19 10:21:00,
2013-07-19 06:27:00,68.6,68.6,30.07,South,182,0.0,0.0,100,0.00,,---,0.00,VWS V14.00,2013-07-19 10:27:00,
2013-07-19 06:32:00,68.6,68.6,30.07,South,182,0.0,0.0,100,0.00,,---,0.00,VWS V14.00,2013-07-19 10:32:00,
2013-07-19 06:37:00,68.6,68.6,30.07,South,182,0.0,0.0,100,0.00,,---,0.00,VWS V14.00,2013-07-19 10:37:00,
2013-07-19 06:42:00,68.6,68.6,30.07,South,182,0.0,0.0,100,0.00,,---,0.00,VWS V14.00,2013-07-19 10:42:00,
2013-07-19 06:47:00,68.6,68.6,30.07,South,182,0.0,0.0,100,0.00,,---,0.00,VWS V14.00,2013-07-19 10:47:00,
2013-07-19 06:52:00,68.6,68.6,30.07,South,182,0.0,0.0,100,0.00,,---,0.00,VWS V14.00,2013-07-19 10:52:00,
2013-07-19 06:57:00,68.8,68.8,30.07,SSW,195,0.0,0.0,100,0.00,,---,0.00,VWS V14.00,2013-07-19 10:57:00,
2013-07-19 07:02:00,69.0,69.0,30.07,South,181,0.0,0.0,100,0.00,,---,0.00,VWS V14.00,2013-07-19 11:02:00,
2013-07-19 07:07:00,69.0,69.0,30.07,SSW,196,0.0,0.0,100,0.00,,---,0.00,VWS V14.00,2013-07-19 11:07:00,
2013-07-19 07:12:00,69.2,69.2,30.07,South,190,0.0,0.0,100,0.00,,---,0.00,VWS V14.00,2013-07-19 11:12:00,
2013-07-19 07:18:00,69.3,69.3,30.07,South,179,0.0,0.0,100,0.00,,---,0.00,VWS V14.00,2013-07-19 11:18:00,
2013-07-19 07:23:00,69.5,69.5,30.07,South,186,0.0,0.0,100,0.00,,---,0.00,VWS V14.00,2013-07-19 11:23:00,
2013-07-19 07:28:00,69.5,69.5,30.07,South,185,0.0,0.0,100,0.00,,---,0.00,VWS V14.00,2013-07-19 11:28:00,
2013-07-19 07:33:00,69.7,69.7,30.07,South,185,0.0,0.0,100,0.00,,---,0.00,VWS V14.00,2013-07-19 11:33:00,
2013-07-19 07:38:00,69.7,69.7,30.07,South,191,0.0,0.0,100,0.00,,---,0.00,VWS V14.00,2013-07-19 11:38:00,
2013-07-19 07:43:00,69.7,69.7,30.07,South,187,0.0,0.0,100,0.00,,---,0.00,VWS V14.00,2013-07-19 11:43:00,
2013-07-19 07:48:00,69.9,69.9,30.07,South,188,0.0,0.0,100,0.00,,---,0.00,VWS V14.00,2013-07-19 11:48:00,
2013-07-19 07:53:00,69.9,69.9,30.07,South,185,0.0,0.0,100,0.00,,---,0.00,VWS V14.00,2013-07-19 11:53:00,
2013-07-19 07:59:00,70.1,70.1,30.07,SSW,196,0.0,0.0,100,0.00,,---,0.00,VWS V14.00,2013-07-19 11:59:00,
2013-07-19 08:04:00,70.1,70.1,30.07,SSW,192,0.0,0.0,100,0.00,,---,0.00,VWS V14.00,2013-07-19 12:04:00,
2013-07-19 08:09:00,70.1,70.1,30.07,SSW,196,0.0,0.0,100,0.00,,---,0.00,VWS V14.00,2013-07-19 12:09:00,
2013-07-19 08:14:00,70.2,70.2,30.10,SSW,193,0.0,0.0,100,0.00,,---,0.00,VWS V14.00,2013-07-19 12:14:00,
2013-07-19 08:19:00,70.4,70.4,30.10,South,183,0.0,0.0,100,0.00,,---,0.00,VWS V14.00,2013-07-19 12:19:00,
2013-07-19 08:24:00,70.6,70.6,30.10,South,189,0.0,0.0,100,0.00,,---,0.00,VWS V14.00,2013-07-19 12:24:00,
2013-07-19 08:29:00,70.6,70.6,30.10,South,191,0.0,0.0,100,0.00,,---,0.00,VWS V14.00,2013-07-19 12:29:00,
2013-07-19 08:35:00,70.8,70.8,30.10,South,187,0.0,0.0,100,0.00,,---,0.00,VWS V14.00,2013-07-19 12:35:00,
2013-07-19 08:40:00,71.0,71.0,30.10,South,186,0.0,0.0,100,0.00,,---,0.00,VWS V14.00,2013-07-19 12:40:00,
2013-07-19 08:45:00,71.3,71.3,30.10,South,186,0.0,0.0,100,0.00,,---,0.00,VWS V14.00,2013-07-19 12:45:00,
2013-07-19 08:50:00,71.7,71.7,30.10,South,187,0.0,0.0,100,0.00,,---,0.00,VWS V14.00,2013-07-19 12:50:00,
2013-07-19 08:55:00,72.0,72.0,30.10,South,187,0.0,0.0,100,0.00,,---,0.00,VWS V14.00,2013-07-19 12:55:00,
2013-07-19 09:00:00,72.6,72.6,30.10,South,185,0.0,0.0,100,0.00,,---,0.00,VWS V14.00,2013-07-19 13:00:00,
2013-07-19 09:05:00,72.9,72.9,30.10,SSW,203,0.0,0.0,100,0.00,,---,0.00,VWS V14.00,2013-07-19 13:05:00,
2013-07-19 09:10:00,73.1,73.1,30.10,SSW,198,0.0,0.0,100,0.00,,---,0.00,VWS V14.00,2013-07-19 13:10:00,
2013-07-19 09:15:00,73.3,73.3,30.10,South,188,0.0,0.0,100,0.00,,---,0.00,VWS V14.00,2013-07-19 13:15:00,
2013-07-19 09:20:00,73.5,73.5,30.10,SSE,161,0.0,0.0,100,0.00,,---,0.00,VWS V14.00,2013-07-19 13:20:00,
2013-07-19 09:25:00,73.7,73.7,30.10,SSW,197,0.0,0.0,100,0.00,,---,0.00,VWS V14.00,2013-07-19 13:25:00,
2013-07-19 09:28:00,73.8,73.8,30.10,South,184,0.0,0.0,100,0.00,,---,0.00,VWS V14.00,2013-07-19 13:28:00,
2013-07-19 09:33:00,73.8,73.8,30.10,South,181,0.0,0.0,100,0.00,,---,0.00,VWS V14.00,2013-07-19 13:33:00,
2013-07-19 09:38:00,74.4,74.4,30.10,South,188,0.0,0.0,100,0.00,,---,0.00,VWS V14.00,2013-07-19 13:38:00,
2013-07-19 09:43:00,74.6,74.6,30.07,SSE,152,0.0,0.0,100,0.00,,---,0.00,VWS V14.00,2013-07-19 13:43:00,
2013-07-19 09:48:00,74.6,74.6,30.07,South,177,0.0,0.0,100,0.00,,---,0.00,VWS V14.00,2013-07-19 13:48:00,
2013-07-19 09:53:00,74.6,74.6,30.07,South,182,0.0,0.0,100,0.00,,---,0.00,VWS V14.00,2013-07-19 13:53:00,
2013-07-19 09:59:00,75.1,75.1,30.10,South,186,0.0,0.0,100,0.00,,---,0.00,VWS V14.00,2013-07-19 13:59:00,
2013-07-19 10:04:00,75.5,75.5,30.10,SSW,203,0.0,0.0,100,0.00,,---,0.00,VWS V14.00,2013-07-19 14:04:00,
2013-07-19 10:09:00,76.4,76.4,30.10,SSE,160,0.0,0.0,100,0.00,,---,0.00,VWS V14.00,2013-07-19 14:09:00,
2013-07-19 10:14:00,77.3,77.0,30.10,SSE,155,0.0,0.0,99,0.00,,---,0.00,VWS V14.00,2013-07-19 14:14:00,
2013-07-19 10:19:00,78.0,76.1,30.10,South,186,0.0,0.0,94,0.00,,---,0.00,VWS V14.00,2013-07-19 14:19:00,
2013-07-19 10:24:00,78.7,75.5,30.10,SE,132,0.0,0.0,90,0.00,,---,0.00,VWS V14.00,2013-07-19 14:24:00,
2013-07-19 10:29:00,79.2,74.3,30.10,SSE,147,0.0,0.0,85,0.00,,---,0.00,VWS V14.00,2013-07-19 14:29:00,
2013-07-19 10:34:00,79.6,73.6,30.10,South,189,0.0,0.0,82,0.00,,---,0.00,VWS V14.00,2013-07-19 14:34:00,
2013-07-19 10:40:00,80.1,73.4,30.10,South,179,0.0,0.0,80,0.00,,---,0.00,VWS V14.00,2013-07-19 14:40:00,
2013-07-19 10:45:00,80.5,72.6,30.10,SSW,206,0.0,0.0,77,0.00,,---,0.00,VWS V14.00,2013-07-19 14:45:00,
2013-07-19 10:50:00,80.5,72.2,30.10,SSW,204,0.0,0.0,76,0.00,,---,0.00,VWS V14.00,2013-07-19 14:50:00,
2013-07-19 10:55:00,80.7,72.0,30.10,South,181,0.0,0.0,75,0.00,,---,0.00,VWS V14.00,2013-07-19 14:55:00,
2013-07-19 11:00:00,81.4,71.9,30.10,SSW,200,0.0,0.0,73,0.00,,---,0.00,VWS V14.00,2013-07-19 15:00:00,
2013-07-19 11:05:00,82.1,71.8,30.10,SSW,200,0.0,0.0,71,0.00,,---,0.00,VWS V14.00,2013-07-19 15:05:00,
2013-07-19 11:10:00,82.5,70.9,30.10,SSW,195,0.0,0.0,68,0.00,,---,0.00,VWS V14.00,2013-07-19 15:10:00,
2013-07-19 11:15:00,82.7,70.6,30.10,SSW,196,0.0,0.0,67,0.00,,---,0.00,VWS V14.00,2013-07-19 15:15:00,
2013-07-19 11:21:00,83.0,70.5,30.10,South,184,0.0,0.0,66,0.00,,---,0.00,VWS V14.00,2013-07-19 15:21:00,
2013-07-19 11:26:00,83.7,70.7,30.10,SE,138,0.0,0.0,65,0.00,,---,0.00,VWS V14.00,2013-07-19 15:26:00,
2013-07-19 11:31:00,84.1,70.2,30.10,SW,217,0.0,0.0,63,0.00,,---,0.00,VWS V14.00,2013-07-19 15:31:00,
2013-07-19 11:36:00,84.3,70.3,30.10,South,191,0.0,2.2,63,0.00,,---,0.00,VWS V14.00,2013-07-19 15:36:00,
2013-07-19 11:42:00,84.5,70.0,30.10,SSE,165,0.0,0.0,62,0.00,,---,0.00,VWS V14.00,2013-07-19 15:42:00,
2013-07-19 11:47:00,85.2,70.7,30.10,South,173,0.0,0.0,62,0.00,,---,0.00,VWS V14.00,2013-07-19 15:47:00,
2013-07-19 11:52:00,85.7,70.7,30.10,ESE,103,0.0,2.2,61,0.00,,---,0.00,VWS V14.00,2013-07-19 15:52:00,
2013-07-19 11:57:00,85.7,70.2,30.10,South,178,0.0,2.2,60,0.00,,---,0.00,VWS V14.00,2013-07-19 15:57:00,
2013-07-19 12:02:00,85.5,69.6,30.10,ENE,77,0.0,3.1,59,0.00,,---,0.00,VWS V14.00,2013-07-19 16:02:00,
2013-07-19 12:07:00,85.4,69.9,30.10,South,191,0.0,3.1,60,0.00,,---,0.00,VWS V14.00,2013-07-19 16:07:00,
2013-07-19 12:13:00,85.7,70.2,30.10,SE,133,0.0,0.0,60,0.00,,---,0.00,VWS V14.00,2013-07-19 16:13:00,
2013-07-19 12:18:00,86.4,70.4,30.10,SSE,148,0.0,2.7,59,0.00,,---,0.00,VWS V14.00,2013-07-19 16:18:00,
2013-07-19 12:23:00,86.1,69.6,30.10,SW,234,0.0,0.0,58,0.00,,---,0.00,VWS V14.00,2013-07-19 16:23:00,
2013-07-19 12:28:00,86.1,69.6,30.07,ESE,119,0.0,0.0,58,0.00,,---,0.00,VWS V14.00,2013-07-19 16:28:00,
2013-07-19 12:33:00,86.1,69.6,30.07,SW,228,0.0,0.0,58,0.00,,---,0.00,VWS V14.00,2013-07-19 16:33:00,
2013-07-19 12:38:00,86.4,69.9,30.07,SSE,159,0.0,0.0,58,0.00,,---,0.00,VWS V14.00,2013-07-19 16:38:00,
2013-07-19 12:43:00,86.6,69.6,30.07,South,178,0.0,0.0,57,0.00,,---,0.00,VWS V14.00,2013-07-19 16:43:00,
2013-07-19 12:48:00,86.8,69.2,30.07,South,174,0.0,0.0,56,0.00,,---,0.00,VWS V14.00,2013-07-19 16:48:00,
2013-07-19 12:53:00,86.8,69.8,30.07,SSE,154,0.0,0.0,57,0.00,,---,0.00,VWS V14.00,2013-07-19 16:53:00,
2013-07-19 12:58:00,86.8,69.8,30.07,ESE,122,0.0,0.0,57,0.00,,---,0.00,VWS V14.00,2013-07-19 16:58:00,
2013-07-19 13:03:00,87.3,69.7,30.07,SSW,210,0.0,0.0,56,0.00,,---,0.00,VWS V14.00,2013-07-19 17:03:00,
2013-07-19 13:08:00,87.9,70.2,30.07,SE,145,0.0,0.0,56,0.00,,---,0.00,VWS V14.00,2013-07-19 17:08:00,
2013-07-19 13:13:00,88.2,70.0,30.07,SW,225,0.0,0.0,55,0.00,,---,0.00,VWS V14.00,2013-07-19 17:13:00,
2013-07-19 13:19:00,88.4,70.2,30.07,SSW,194,0.0,0.0,55,0.00,,---,0.00,VWS V14.00,2013-07-19 17:19:00,
2013-07-19 13:24:00,89.0,69.1,30.07,South,169,0.0,0.0,52,0.00,,---,0.00,VWS V14.00,2013-07-19 17:24:00,
2013-07-19 13:29:00,89.0,68.5,30.07,SE,144,0.0,0.0,51,0.00,,---,0.00,VWS V14.00,2013-07-19 17:29:00,
2013-07-19 13:34:00,89.1,68.7,30.07,South,188,0.0,0.0,51,0.00,,---,0.00,VWS V14.00,2013-07-19 17:34:00,
2013-07-19 13:39:00,89.1,68.7,30.07,SSW,204,0.0,0.0,51,0.00,,---,0.00,VWS V14.00,2013-07-19 17:39:00,
2013-07-19 13:44:00,89.1,68.1,30.07,SW,229,0.0,0.0,50,0.00,,---,0.00,VWS V14.00,2013-07-19 17:44:00,
2013-07-19 13:49:00,89.3,68.8,30.07,SSW,204,0.0,0.0,51,0.00,,---,0.00,VWS V14.00,2013-07-19 17:49:00,
2013-07-19 13:54:00,89.5,68.4,30.07,SW,218,0.0,0.0,50,0.00,,---,0.00,VWS V14.00,2013-07-19 17:54:00,
2013-07-19 13:59:00,89.3,68.3,30.07,ENE,65,0.0,0.0,50,0.00,,---,0.00,VWS V14.00,2013-07-19 17:59:00,
2013-07-19 14:04:00,89.5,68.4,30.07,South,189,0.0,0.0,50,0.00,,---,0.00,VWS V14.00,2013-07-19 18:04:00,
2013-07-19 14:09:00,89.9,68.8,30.07,SSW,204,0.0,0.0,50,0.00,,---,0.00,VWS V14.00,2013-07-19 18:09:00,
2013-07-19 14:14:00,90.0,68.3,30.04,SW,220,0.0,0.0,49,0.00,,---,0.00,VWS V14.00,2013-07-19 18:14:00,
2013-07-19 14:19:00,90.2,68.5,30.04,SSE,166,0.0,0.0,49,0.00,,---,0.00,VWS V14.00,2013-07-19 18:19:00,
2013-07-19 14:25:00,90.0,68.3,30.04,NE,35,0.0,0.0,49,0.00,,---,0.00,VWS V14.00,2013-07-19 18:25:00,
2013-07-19 14:30:00,89.9,68.2,30.04,SE,137,0.0,0.0,49,0.00,,---,0.00,VWS V14.00,2013-07-19 18:30:00,
2013-07-19 14:35:00,90.0,68.9,30.04,SSE,152,0.0,0.0,50,0.00,,---,0.00,VWS V14.00,2013-07-19 18:35:00,
2013-07-19 14:40:00,90.4,68.1,30.04,SSE,147,0.0,0.0,48,0.00,,---,0.00,VWS V14.00,2013-07-19 18:40:00,
2013-07-19 14:45:00,90.2,68.5,30.04,SW,220,0.0,0.0,49,0.00,,---,0.00,VWS V14.00,2013-07-19 18:45:00,
2013-07-19 14:50:00,90.6,68.8,30.04,SW,225,0.0,0.0,49,0.00,,---,0.00,VWS V14.00,2013-07-19 18:50:00,
2013-07-19 14:55:00,90.9,69.2,30.04,WSW,237,0.0,0.0,49,0.00,,---,0.00,VWS V14.00,2013-07-19 18:55:00,
2013-07-19 15:00:00,91.1,68.7,30.01,SSW,204,0.0,0.0,48,0.00,,---,0.00,VWS V14.00,2013-07-19 19:00:00,
2013-07-19 15:05:00,91.3,68.9,30.01,ESE,117,0.0,0.0,48,0.00,,---,0.00,VWS V14.00,2013-07-19 19:05:00,
2013-07-19 15:10:00,91.1,68.7,30.01,SE,136,0.0,0.0,48,0.00,,---,0.00,VWS V14.00,2013-07-19 19:10:00,
2013-07-19 15:15:00,90.6,68.2,30.01,ESE,123,0.0,0.0,48,0.00,,---,0.00,VWS V14.00,2013-07-19 19:15:00,
2013-07-19 15:20:00,90.8,69.0,30.01,East,98,0.0,0.0,49,0.00,,---,0.00,VWS V14.00,2013-07-19 19:20:00,
2013-07-19 15:25:00,91.1,69.3,30.01,South,173,4.0,8.3,49,0.00,,---,0.00,VWS V14.00,2013-07-19 19:25:00,
2013-07-19 15:30:00,91.8,70.0,30.01,South,188,0.0,2.2,49,0.00,,---,0.00,VWS V14.00,2013-07-19 19:30:00,
2013-07-19 15:36:00,92.4,69.9,30.01,SW,222,5.4,6.3,48,0.00,,---,0.00,VWS V14.00,2013-07-19 19:36:00,
2013-07-19 15:41:00,92.7,70.2,30.01,SSW,204,0.0,2.2,48,0.00,,---,0.00,VWS V14.00,2013-07-19 19:41:00,
2013-07-19 15:46:00,93.3,70.1,30.01,South,191,6.3,6.3,47,0.00,,---,0.00,VWS V14.00,2013-07-19 19:46:00,
2013-07-19 15:51:00,92.7,69.6,30.01,SW,220,3.1,8.7,47,0.00,,---,0.00,VWS V14.00,2013-07-19 19:51:00,
2013-07-19 15:56:00,92.7,69.6,30.01,SE,144,4.0,8.7,47,0.00,,---,0.00,VWS V14.00,2013-07-19 19:56:00,
2013-07-19 16:01:00,92.9,69.7,30.01,South,183,5.4,8.1,47,0.00,,---,0.00,VWS V14.00,2013-07-19 20:01:00,
2013-07-19 16:06:00,92.7,69.6,30.01,SSW,204,8.3,8.7,47,0.00,,---,0.00,VWS V14.00,2013-07-19 20:06:00,
2013-07-19 16:11:00,92.4,69.2,30.01,SE,143,4.0,5.4,47,0.00,,---,0.00,VWS V14.00,2013-07-19 20:11:00,
2013-07-19 16:16:00,92.7,69.6,29.98,SSW,194,7.6,7.6,47,0.00,,---,0.00,VWS V14.00,2013-07-19 20:16:00,
2013-07-19 16:21:00,93.1,69.9,29.98,SW,220,8.1,8.1,47,0.00,,---,0.00,VWS V14.00,2013-07-19 20:21:00,
2013-07-19 16:26:00,93.3,70.1,29.98,South,187,5.4,8.3,47,0.00,,---,0.00,VWS V14.00,2013-07-19 20:26:00,
2013-07-19 16:32:00,93.3,69.4,29.98,SSE,149,2.7,6.3,46,0.00,,---,0.00,VWS V14.00,2013-07-19 20:32:00,
2013-07-19 16:37:00,92.7,68.9,29.98,SSE,147,5.4,10.1,46,0.00,,---,0.00,VWS V14.00,2013-07-19 20:37:00,
2013-07-19 16:42:00,91.7,68.6,29.98,SSW,194,2.7,5.8,47,0.00,,---,0.00,VWS V14.00,2013-07-19 20:42:00,
2013-07-19 16:47:00,91.1,68.1,29.98,SSW,205,10.1,10.5,47,0.00,,---,0.00,VWS V14.00,2013-07-19 20:47:00,
2013-07-19 16:52:00,91.8,68.8,29.98,SSW,206,5.8,9.2,47,0.00,,---,0.00,VWS V14.00,2013-07-19 20:52:00,
2013-07-19 16:57:00,92.4,69.2,29.98,SSE,157,4.0,9.2,47,0.00,,---,0.00,VWS V14.00,2013-07-19 20:57:00,
2013-07-19 17:02:00,92.7,69.6,29.98,SSW,205,5.8,8.7,47,0.00,,---,0.00,VWS V14.00,2013-07-19 21:02:00,
2013-07-19 17:07:00,93.3,69.4,29.98,SE,124,2.2,8.7,46,0.00,,---,0.00,VWS V14.00,2013-07-19 21:07:00,
2013-07-19 17:12:00,92.7,68.3,29.98,South,176,4.0,11.0,45,0.00,,---,0.00,VWS V14.00,2013-07-19 21:12:00,
2013-07-19 17:17:00,92.2,69.1,29.98,SE,129,0.0,11.0,47,0.00,,---,0.00,VWS V14.00,2013-07-19 21:17:00,
2013-07-19 17:22:00,92.0,68.9,29.98,SSW,197,3.1,8.1,47,0.00,,---,0.00,VWS V14.00,2013-07-19 21:22:00,
2013-07-19 17:28:00,91.3,68.3,29.98,South,176,5.4,8.7,47,0.00,,---,0.00,VWS V14.00,2013-07-19 21:28:00,
2013-07-19 17:33:00,91.3,68.3,29.98,SW,220,5.4,8.1,47,0.00,,---,0.00,VWS V14.00,2013-07-19 21:33:00,
2013-07-19 17:38:00,92.0,68.9,29.98,SSE,165,3.6,8.1,47,0.00,,---,0.00,VWS V14.00,2013-07-19 21:38:00,
2013-07-19 17:43:00,92.6,69.4,29.98,SW,227,8.1,8.7,47,0.00,,---,0.00,VWS V14.00,2013-07-19 21:43:00,
2013-07-19 17:48:00,92.9,69.7,29.98,East,92,4.0,8.7,47,0.00,,---,0.00,VWS V14.00,2013-07-19 21:48:00,
2013-07-19 17:53:00,92.7,69.6,29.98,SSE,160,5.4,9.6,47,0.00,,---,0.00,VWS V14.00,2013-07-19 21:53:00,
2013-07-19 17:58:00,91.5,68.4,29.98,SSE,160,4.5,9.6,47,0.00,,---,0.00,VWS V14.00,2013-07-19 21:58:00,
2013-07-19 18:03:00,90.8,67.8,29.98,South,181,5.8,8.7,47,0.00,,---,0.00,VWS V14.00,2013-07-19 22:03:00,
2013-07-19 18:08:00,90.8,67.8,29.98,SSE,165,6.3,8.7,47,0.00,,---,0.00,VWS V14.00,2013-07-19 22:08:00,
2013-07-19 18:13:00,91.5,68.4,29.95,South,187,8.7,8.7,47,0.00,,---,0.00,VWS V14.00,2013-07-19 22:13:00,
2013-07-19 18:16:00,91.8,68.8,29.95,ESE,111,4.9,8.7,47,0.00,,---,0.00,VWS V14.00,2013-07-19 22:16:00,
2013-07-19 18:21:00,92.2,69.1,29.95,SSW,202,7.6,7.6,47,0.00,,---,0.00,VWS V14.00,2013-07-19 22:21:00,
2013-07-19 18:26:00,92.4,69.2,29.98,ESE,116,3.1,10.5,47,0.00,,---,0.00,VWS V14.00,2013-07-19 22:26:00,
2013-07-19 18:31:00,92.6,69.4,29.98,SSE,162,6.3,6.3,47,0.00,,---,0.00,VWS V14.00,2013-07-19 22:31:00,
2013-07-19 18:36:00,92.2,69.1,29.98,SSW,198,5.4,6.3,47,0.00,,---,0.00,VWS V14.00,2013-07-19 22:36:00,
2013-07-19 18:42:00,92.0,68.9,29.98,SE,132,2.7,4.0,47,0.00,,---,0.00,VWS V14.00,2013-07-19 22:42:00,
2013-07-19 18:47:00,92.0,68.9,29.98,SE,132,5.4,6.3,47,0.00,,---,0.00,VWS V14.00,2013-07-19 22:47:00,
2013-07-19 18:52:00,92.0,68.9,29.98,SSE,153,5.8,7.6,47,0.00,,---,0.00,VWS V14.00,2013-07-19 22:52:00,
2013-07-19 18:57:00,92.0,68.9,29.98,South,172,2.7,7.6,47,0.00,,---,0.00,VWS V14.00,2013-07-19 22:57:00,
2013-07-19 19:02:00,92.2,69.1,29.98,ESE,107,3.6,6.3,47,0.00,,---,0.00,VWS V14.00,2013-07-19 23:02:00,
2013-07-19 19:07:00,91.7,68.6,29.98,SSW,210,5.4,7.6,47,0.00,,---,0.00,VWS V14.00,2013-07-19 23:07:00,
2013-07-19 19:12:00,91.3,68.9,29.98,ESE,112,3.1,4.9,48,0.00,,---,0.00,VWS V14.00,2013-07-19 23:12:00,
2013-07-19 19:17:00,90.9,68.6,29.98,SSW,192,4.9,8.7,48,0.00,,---,0.00,VWS V14.00,2013-07-19 23:17:00,
2013-07-19 19:23:00,90.2,67.9,29.98,SSW,193,4.9,6.3,48,0.00,,---,0.00,VWS V14.00,2013-07-19 23:23:00,
2013-07-19 19:28:00,89.5,67.8,29.98,SSE,157,5.4,6.3,49,0.00,,---,0.00,VWS V14.00,2013-07-19 23:28:00,
2013-07-19 19:33:00,89.0,67.3,29.98,SSW,213,3.1,8.3,49,0.00,,---,0.00,VWS V14.00,2013-07-19 23:33:00,
2013-07-19 19:38:00,88.6,67.0,29.98,SSE,167,3.6,8.3,49,0.00,,---,0.00,VWS V14.00,2013-07-19 23:38:00,
2013-07-19 19:43:00,88.1,67.1,29.98,ESE,120,2.7,5.8,50,0.00,,---,0.00,VWS V14.00,2013-07-19 23:43:00,
2013-07-19 19:48:00,87.9,67.5,29.98,WSW,238,4.0,7.6,51,0.00,,---,0.00,VWS V14.00,2013-07-19 23:48:00,
2013-07-19 19:53:00,87.5,67.2,29.98,SSE,164,2.2,6.7,51,0.00,,---,0.00,VWS V14.00,2013-07-19 23:53:00,
2013-07-19 19:58:00,87.5,67.7,29.98,SE,142,3.1,6.7,52,0.00,,---,0.00,VWS V14.00,2013-07-19 23:58:00,
2013-07-19 20:03:00,87.3,67.6,29.98,SSE,152,2.7,6.3,52,0.00,,---,0.00,VWS V14.00,2013-07-20 00:03:00,
2013-07-19 20:08:00,87.2,67.4,29.98,SSW,193,2.7,6.3,52,0.00,,---,0.00,VWS V14.00,2013-07-20 00:08:00,
2013-07-19 20:13:00,87.0,67.2,29.98,SW,231,5.8,8.1,52,0.00,,---,0.00,VWS V14.00,2013-07-20 00:13:00,
2013-07-19 20:18:00,86.4,67.3,29.98,SSW,194,5.4,8.1,53,0.00,,---,0.00,VWS V14.00,2013-07-20 00:18:00,
2013-07-19 20:24:00,86.1,67.5,29.98,ESE,103,3.1,5.4,54,0.00,,---,0.00,VWS V14.00,2013-07-20 00:24:00,
2013-07-19 20:29:00,85.7,67.7,29.98,South,179,3.6,6.3,55,0.00,,---,0.00,VWS V14.00,2013-07-20 00:29:00,
2013-07-19 20:34:00,85.5,68.1,29.98,SSW,201,3.1,4.0,56,0.00,,---,0.00,VWS V14.00,2013-07-20 00:34:00,
2013-07-19 20:39:00,85.4,68.4,29.98,SSW,206,5.8,5.8,57,0.00,,---,0.00,VWS V14.00,2013-07-20 00:39:00,
2013-07-19 20:44:00,85.0,68.1,29.98,SSW,195,4.0,4.0,57,0.00,,---,0.00,VWS V14.00,2013-07-20 00:44:00,
2013-07-19 20:49:00,84.6,68.7,29.98,SSW,196,3.1,5.8,59,0.00,,---,0.00,VWS V14.00,2013-07-20 00:49:00,
2013-07-19 20:54:00,84.3,68.4,29.98,South,182,3.1,5.4,59,0.00,,---,0.00,VWS V14.00,2013-07-20 00:54:00,
2013-07-19 20:59:00,83.9,68.1,29.98,SW,224,4.0,5.4,59,0.00,,---,0.00,VWS V14.00,2013-07-20 00:59:00,
2013-07-19 21:04:00,83.6,68.2,29.98,SSW,205,2.7,4.0,60,0.00,,---,0.00,VWS V14.00,2013-07-20 01:04:00,
2013-07-19 21:10:00,83.2,68.4,29.98,SSW,209,3.1,4.0,61,0.00,,---,0.00,VWS V14.00,2013-07-20 01:10:00,
2013-07-19 21:15:00,82.8,68.0,29.98,SSW,209,4.0,6.3,61,0.00,,---,0.00,VWS V14.00,2013-07-20 01:15:00,
2013-07-19 21:20:00,82.7,68.3,29.98,SSW,202,3.6,6.3,62,0.00,,---,0.00,VWS V14.00,2013-07-20 01:20:00,
2013-07-19 21:25:00,82.5,68.6,29.98,SSW,211,4.0,6.3,63,0.00,,---,0.00,VWS V14.00,2013-07-20 01:25:00,
2013-07-19 21:30:00,82.3,68.9,29.98,SSW,207,4.0,4.0,64,0.00,,---,0.00,VWS V14.00,2013-07-20 01:30:00,
2013-07-19 21:35:00,82.1,68.3,29.98,SSW,203,2.7,5.8,63,0.00,,---,0.00,VWS V14.00,2013-07-20 01:35:00,
2013-07-19 21:40:00,82.1,68.3,29.98,SW,214,2.7,3.6,63,0.00,,---,0.00,VWS V14.00,2013-07-20 01:40:00,
2013-07-19 21:45:00,81.9,68.1,29.98,WSW,239,4.9,8.1,63,0.00,,---,0.00,VWS V14.00,2013-07-20 01:45:00,
2013-07-19 21:51:00,81.9,68.1,29.98,SW,235,4.0,5.4,63,0.00,,---,0.00,VWS V14.00,2013-07-20 01:51:00,
2013-07-19 21:56:00,81.8,67.5,29.98,WSW,256,5.4,9.6,62,0.00,,---,0.00,VWS V14.00,2013-07-20 01:56:00,
2013-07-19 22:01:00,81.2,67.0,29.98,WSW,244,6.3,8.1,62,0.00,,---,0.00,VWS V14.00,2013-07-20 02:01:00,
2013-07-19 22:06:00,80.5,66.3,29.98,WSW,239,4.0,8.1,62,0.00,,---,0.00,VWS V14.00,2013-07-20 02:06:00,
2013-07-19 22:11:00,80.0,66.2,29.98,West,277,3.6,4.0,63,0.00,,---,0.00,VWS V14.00,2013-07-20 02:11:00,
2013-07-19 22:16:00,79.6,65.9,29.98,WSW,253,0.0,4.0,63,0.00,,---,0.00,VWS V14.00,2013-07-20 02:16:00,
2013-07-19 22:21:00,79.4,66.2,29.98,WSW,253,0.0,0.0,64,0.00,,---,0.00,VWS V14.00,2013-07-20 02:21:00,
2013-07-19 22:27:00,79.2,66.0,29.98,WSW,253,0.0,0.0,64,0.00,,---,0.00,VWS V14.00,2013-07-20 02:27:00,
2013-07-19 22:32:00,79.1,66.3,29.98,SSW,210,0.0,0.0,65,0.00,,---,0.00,VWS V14.00,2013-07-20 02:32:00,
2013-07-19 22:37:00,78.7,66.4,29.98,South,180,0.0,0.0,66,0.00,,---,0.00,VWS V14.00,2013-07-20 02:37:00,
2013-07-19 22:42:00,78.5,66.2,29.98,WSW,241,0.0,2.2,66,0.00,,---,0.00,VWS V14.00,2013-07-20 02:42:00,
2013-07-19 22:47:00,78.5,66.2,29.98,WSW,257,0.0,2.7,66,0.00,,---,0.00,VWS V14.00,2013-07-20 02:47:00,
2013-07-19 22:52:00,78.3,65.6,29.98,SSW,210,0.0,2.2,65,0.00,,---,0.00,VWS V14.00,2013-07-20 02:52:00,
2013-07-19 22:57:00,78.2,65.4,29.98,SW,234,0.0,2.2,65,0.00,,---,0.00,VWS V14.00,2013-07-20 02:57:00,
2013-07-19 23:03:00,78.2,65.9,29.98,WSW,253,0.0,0.0,66,0.00,,---,0.00,VWS V14.00,2013-07-20 03:03:00,
2013-07-19 23:08:00,78.0,65.7,29.98,SW,236,0.0,0.0,66,0.00,,---,0.00,VWS V14.00,2013-07-20 03:08:00,
2013-07-19 23:13:00,77.8,65.5,29.98,WSW,251,0.0,0.0,66,0.00,,---,0.00,VWS V14.00,2013-07-20 03:13:00,
2013-07-19 23:18:00,77.6,65.8,29.98,WSW,255,0.0,0.0,67,0.00,,---,0.00,VWS V14.00,2013-07-20 03:18:00,
2013-07-19 23:23:00,77.4,65.6,29.98,North,2,0.0,0.0,67,0.00,,---,0.00,VWS V14.00,2013-07-20 03:23:00,
2013-07-19 23:28:00,77.3,66.3,29.98,NNW,334,0.0,0.0,69,0.00,,---,0.00,VWS V14.00,2013-07-20 03:28:00,
2013-07-19 23:33:00,76.9,66.4,29.98,West,276,0.0,0.0,70,0.00,,---,0.00,VWS V14.00,2013-07-20 03:33:00,
2013-07-19 23:38:00,76.7,66.2,29.98,West,260,0.0,0.0,70,0.00,,---,0.00,VWS V14.00,2013-07-20 03:38:00,
2013-07-19 23:43:00,76.4,66.3,29.98,WSW,258,0.0,0.0,71,0.00,,---,0.00,VWS V14.00,2013-07-20 03:43:00,
2013-07-19 23:48:00,76.2,66.1,29.98,West,278,0.0,0.0,71,0.00,,---,0.00,VWS V14.00,2013-07-20 03:48:00,
2013-07-19 23:53:00,76.0,66.3,29.98,NW,311,0.0,0.0,72,0.00,,---,0.00,VWS V14.00,2013-07-20 03:53:00,
2013-07-19 23:59:00,76.0,66.7,29.98,NNW,328,0.0,0.0,73,0.00,,---,0.00,VWS V14.00,2013-07-20 03:59:00,